User: anonymous   Login
Location: Unspecified
(0.0000°N, 0.0000°E)
Time: 08:57:04
(UTC+00:00)
Language:

OBJECT G - Orbit

View from above orbital plane
View from above orbital plane
View from above satellite
View from above satellite

Ground track
Ground track

The orbit data is extracted from the following two-line orbital elements,

1 41789U 16059G   17204.91867291 +.00000066 +00000-0 +21864-4 0  9994
2 41789 098.1652 266.4799 0029309 041.9881 318.3548 14.64058821043984
Epoch (UTC): 23 July 2017 22:02:53
Eccentricity: 0.0029309
inclination: 98.1652°
perigee height: 659 km
apogee height: 701 km
right ascension of ascending node: 266.4799°
argument of perigee: 41.9881°
revolutions per day: 14.64058821
mean anomaly at epoch: 318.3548°
orbit number at epoch: 4398

The dashed part of the orbit path shows where the satellite is in the earth's shadow,  

DLR